Flag for Germany Weather past 2 weeks in Neuwied, Rhineland-Palatinate, Germany

Now
50 °F

Cool.


Feels Like: 48 °F
Forecast: 47 / 60 °F
Wind: 6 mph from North

Location: Buechel

Current Time: May 25, 2015 at 4:30:37 AM

Latest Report: May 25, 2015 at 3:20 AM


Visibility: N/A

Pressure: 30.01 "Hg

Humidity: 76%

Dew point: 43 °F

Location of NeuwiedLocation

Historic Weather in Neuwied — Graph

°F

Neuwied temperature yesterday

Maximum temperature yesterday: 64 °F (at 4:20 PM)
Minimum temperature yesterday: 50 °F (at 5:20 AM)
Average temperature yesterday: 56 °F

Past Weeks' High & Low Weather Summary

 TemperatureHumidityPressure
High75 °F (May 12, 2:20 PM)100% (May 15, 7:20 AM)30.33 "Hg (May 15, 7:20 AM)
Low37 °F (May 21, 5:20 AM)31% (May 11, 5:20 PM)29.71 "Hg (May 18, 7:20 PM)
Average54 °F66%30.09 "Hg
* Reported May 10 3:20 AM — May 25 3:20 AM, Neuwied, Weather by CustomWeather, © 2015

Note: Actual official high and low records may vary slightly from our data, if they occured in-between our weather recording intervals... More about our weather records

Advertising

Neuwied weather history for previous 24 hours

 ConditionsComfort  
Time TempWeatherWind HumidityBarometerVisibility
3:20 AM
Mon, May 25
50 °FCool.6 mph76%30.01 "HgN/A
2:20 AM50 °FCool.5 mph88%30.04 "Hg4 mi
1:20 AM54 °FCool.6 mph82%30.04 "Hg4 mi
12:20 AM55 °FCool.5 mph88%30.04 "Hg4 mi
11:20 PM
Sun, May 24
54 °FCool.5 mph94%30.07 "Hg1 mi
10:20 PM55 °FCool.6 mph88%30.07 "Hg4 mi
9:20 PM55 °FCool.5 mph94%30.04 "Hg3 mi
8:20 PM57 °FCool.7 mph82%30.04 "Hg4 mi
7:20 PM61 °FCool.3 mph68%30.04 "Hg6 mi
6:20 PM63 °FMild.6 mph56%30.04 "HgN/A
5:20 PM64 °FMild.3 mph52%30.07 "HgN/A
4:20 PM64 °FMild.6 mph52%30.07 "HgN/A
3:20 PM63 °FMild.5 mph59%30.09 "Hg6 mi
2:20 PM63 °FMild.6 mph56%30.09 "Hg6 mi
1:20 PM61 °FCool.3 mph63%30.09 "Hg4 mi
12:20 PM59 °FCool.5 mph72%30.09 "Hg4 mi
11:20 AM55 °FCool.6 mph77%30.12 "Hg4 mi
10:20 AM54 °FCool.6 mph82%30.12 "Hg4 mi
9:20 AM54 °FCool.6 mph82%30.12 "Hg4 mi
8:20 AM54 °FCool.5 mph82%30.12 "Hg4 mi
7:20 AM50 °FCool.5 mph94%30.09 "Hg3 mi
6:20 AM50 °FCool.5 mph94%30.09 "Hg3 mi
5:20 AM50 °FCool.3 mph94%30.09 "Hg3 mi
4:20 AM52 °FCool.5 mph88%30.09 "Hg3 mi
Weather by CustomWeather, © 2015

See weather overviewHow to use our weather pages